{"data":{"norad_id":66904,"intl_designator":"2025-283AC","name":"STARLINK-36059","alt_names":[],"object_type":"PAYLOAD","status":"ACTIVE","operator":null,"country":"US","launch_date":"2025-12-04","launch_site_code":"AFWTR","launch_vehicle":null,"mission":null,"orbit_class":"UNKNOWN","rcs_meters":null,"size_class":null,"mass_kg":null,"dimensions":null,"purposes":["comms"],"wikipedia_slug":null,"has_3d_model":false,"image_url":null,"decayed_at":null,"tle_current":{"epoch":"2026-05-24T23:15:00.463104Z","epoch_age_seconds":71583,"freshness":"FRESH","line1":"1 66904U 25283AC  26144.96875536 -.00238344  00000+0 -83440-2 0  9997","line2":"2 66904  53.1583  29.7959 0008013  94.5148 265.6768 15.29964258 27523","mean_motion":15.29964258,"eccentricity":0.0008013,"inclination_deg":53.1583,"raan_deg":29.7959,"arg_perigee_deg":94.5148,"mean_anomaly_deg":265.6768,"bstar":-0.008344,"rev_number":2752,"period_min":94.11984577224,"perigee_km":470.42688781036,"apogee_km":481.41119802474,"semimajor_km":6854.0560429175,"source":"CELESTRAK","updated_at":"2026-05-25T13:38:21.383800Z"}}}